Погода Казанская

Погода Казанская : погода сейчас, прогноз погоды и архив. Всё, что Вы хотите узнать о погоде Казанская!

Хотите узнать прогноз погоды Казанская? Тогда Вам сюда: Погода Казанская

Поиск расширенной информации на нашем сайте:

Другие новости

Новости СМИ2

Главная страница сайта

Новости сайта

03.07.2017

Напоминаем, что на нашем специализированном сайте Метеоцентр.Азия вы можете получить высокодетализированные автоматические прогнозы погоды по пунктам России, СНГ и мира в авиационном формате (включающие направление и скорость ветра, видимость, явления погоды, количество и форму облачности, нижнюю и верхнюю границу облачности).


Погода Казанская - сегодня

Время (UTC), дата Ветер
(°,м/с) 
Видим.   Явления Облачность Т
(°С)
Тd
(°С)
f(%) Тe
(°С)
Pmin
(гПа)
dP
(гПа)
Po
(мм)
O2
(г/м3)
Тmin Tmax R s Состояние
почвы
18 14.02.18 110 (В) 20000 м    10/10 1000 м 
[Sc]
-5.4 -7.5 85 -7  1029.9  1.4  765  315           
21 14.02.18 110 (В) 20000 м    10/10 1000 м 
[Sc]
-5.8 -8.5 81 -8  1030  0.1  766  316           
00 15.02.18 110 (В) 20000 м    10/10 1000 м 
[Sc]
-6.3 -8.8 82 -9  1031.1  766  317           
03 15.02.18 110 (В) 20000 м    10/10 1000 м 
[Sc]
-6.2 -7.8 88 -8  1031.7  767  317  -6.3      равномерный
сухой снег
100% 
06 15.02.18 110 (В) 20000 м    10/10 600 м 
[Sc]
-6.3 -8.6 84 -9  1033.1  0.6  767  317           
09 15.02.18 120 (ЮВ) 20000 м    10/0 средняя 
[Ac As]
-4.7 -8.3 76 -7  1034.1  2.4  769  316           
12 15.02.18 110 (В) 20000 м    10/10 1000 м 
[Sc]
-3.4 -7.6 73 -5  1034.1  0.1  769  314           
15 15.02.18 110 (В) 20000 м    10/0 средняя 
[Ac As]
-3.8 -7.5 75 -6  1034.8  0.7  769  315    -3.2       
18 15.02.18 100 (В) 20000 м    10/0 средняя 
[Ac As]
-4 -8.2 73 -5  1035.7  0.8  770  316           
21 15.02.18 120 (ЮВ) 20000 м    10/0 средняя 
[Ac As]
-3.9 -8.1 73 -7  1035.5  -0.2  770  315           
00 16.02.18 120 (ЮВ) 20000 м    10/0 средняя 
[Ac As]
-4.2 -7.8 76 -6  1035.4  -0.2  770  316           
03 16.02.18 120 (ЮВ) 20000 м    10/0 средняя 
[Ac As]
-4.7 -7.9 78 -7  1035.2  -0.2  769  316  -4.7      равномерный
сухой снег
100% 
06 16.02.18 100 (В) 20000 м    10/0 
[]
-4.7 -8.7 74 -7  1035.8  0.6  770  317  -5.1         
09 16.02.18 120 (ЮВ) 4{10}  20000 м    9/0 средняя 
[Ac As]
-1.5 -9.5 54 -4  1034.9  -0.8  769  313           
12 16.02.18 120 (ЮВ) 4{10}  20000 м    9/8 600 м средняя 
[Sc|Ac As]
-0.8 -9.1 53 -3  1034.3  -0.5  769  312           
15 16.02.18 110 (В) 3{10}  20000 м    10/10 600 м 
[Sc]
-1.9 -8.4 61 -4  1033.5  -0.9  768  313    -0.2       
18 16.02.18 110 (В) 20000 м    10/10 600 м 
[Sc]
-2.3 -7.8 66 -5  1032.8  -0.6  768  313           
21 16.02.18 110 (В) 20000 м    10/10 600 м 
[Sc]
-3.3 -7.1 75 -5  1032.4  -0.5  767  314           
00 17.02.18 110 (В) 20000 м    10/10 600 м 
[Sc]
-4.6 -7.3 81 -7  1031.8  -0.6  767  315           
03 17.02.18 120 (ЮВ) 20000 м    10/10 600 м 
[Sc]
-4.9 -8.3 77 -8  1030.1  -1.8  766  315  -5.1      равномерный
мокрый или
старый снег
100% 
06 17.02.18 110 (В) 20000 м    10/10 600 м 
[Sc]
-4.9 -8.3 77 -8  1030.1  -0.2  765  315           
09 17.02.18 120 (ЮВ) 20000 м    10/10 600 м 
[Sc]
-3.3 -5.5 85 -5  1028.5  -1.3  764  312           
12 17.02.18 110 (В) 20000 м  {снег}  10/10 600 м 
[Sc]
-2.5 -4.6 85 -5  1026.6  -1.8  763  311           
15 17.02.18 120 (ЮВ) 20000 м    10/10 600 м 
[Sc]
-3.2 -6.3 79 -5  1025.8  -0.9  762  312    -2  0.4     
18 17.02.18 120 (ЮВ) 20000 м    10/10 600 м 
[Sc]
-2.9 -6.9 74 -4  1025.5  -0.3  762  311           
Время (UTC), дата Ветер
(°,м/с) 
Видим.   Явления Облачность Т
(°С)
Тd
(°С)
f(%) Тe
(°С)
Pmin
(гПа)
dP
(гПа)
Po
(мм)
O2
(г/м3)
Тmin Tmax R s Состояние
почвы

Для получения пояснительной информации подведите курсор к названию столбца.

ПОГОДА Казанская - архив

Всё, что Вы хотите узнать о погоде Казанская - удобно и подробно!

Выберите нужную дату (начиная с 1 января 2015* года) и нажмите кнопку "Найти".
Будут отображены архивные сводки погоды по пункту Казанская, начиная с указанной даты.


Отображать данные в формате CSV (для использования в таблицах Excel)


Внимание! Наш архив погоды предназначен исключительно для личного некоммерческого использования в познавательных целях. Если Вам необходимы официальные справки о состоянии погоды (для производственных, юридических, коммерческих и т.п. целей), обращайтесь в органы Росгидромета.

*Примечание: данная дата относится к архиву по метеостанциям СССР (Россия, СНГ, Балтия).
Архив по метеостанциям Зарубежной Европы и Азии (кроме Китая) хранится 10 дней, по другим регионам земного шара (Китай, Африка, Америка, Австралия, Океания) - 1 день.

Казанская - район местоположения метеостанции


Название, широта, долгота, высота метеостанции:
Казанская 49.8°ш. 41.2°д. 72 м над ур. моря [Российская Федерация]

Дополнительная информация

В oтличие oт бoльшинства пoгoдных сайтoв мы публикуем пoдрoбную метеoинфoрмацию в детальнoм прoфессиoнальнoм фoрмате.

Характеристики температуры и влажнoсти вoздуха измеряются на высoте 2 м в тени вдали oт зданий и деревьев.
Скoрoсть ветра измеряется на высoте 10 м (на урoвне рoста челoвека скoрoсть ветра ниже в 1.5-2 раза). Если метеoстанция нахoдится в гoрoде или в лесу, тo скoрoсть ветра занижена на 2-4 м/с пo сравнению с oткрытым местoм. Скoрoсть ветра над акватoриями крупных рек и oзёр, а также на вершинах хoлмoв на 2-5 м/с выше, чем в oбычных услoвиях.
Атмoсфернoе давление в разных тoчках местнoсти мoжет значительнo oтличаться oт давления на метеoстанции, в зависимoсти oт услoвий рельефа (при пoдъёме на 10 м давление пoнижается примернo на 1 мм рт.ст.).